STARLINK-1404, 45686

Orbit data source: Space-Track

STARLINK-1404, 45686 is a payload satellite owned by SpaceX/Seattle (US) in LEO that was launched on Thu, 04 Jun 2020 UTC via an FALCON 9 launch vehicle from the Air Force Eastern Test Range (AFETR). Payload-class satellites include a variety of spacecraft equipped with specific instruments for various scientific and technological missions. These include communications satellites like Starlink; space stations such as the ISS; scientific satellites like the Hubble; Earth observation satellites from companies like Planet Labs, Umbra, and HawkEye 360; GPS; miniature CubeSats for education and research; and military/defense satellites.

Loading next visibility...
Identifier
45686, 2020-035AF
Orbit
LEO
Country
Flag of USUS
Related business
Manufacturer
SpaceX/Seattle
Mission
Operational Commercial Communications
Bus & Motor
STARLINK, Unknown motor
Mass
260 kg wet, ~248 kg dry
Launch date (UTC)
2020-06-04 (5 years ago)
Launch vehicle
FALCON 9
Launch site
Air Force Eastern Test Range (AFETR)
Object type
Payload
Rocket body
Debris
Shape & HBR
Box + 1 Pan, 10.1 m
Radar Cross Section
13.562 m², Large (>1 m²)

Expand to show TLE details & history
Last TLE update: 10 hours ago

TLE from 10 hours ago
0 STARLINK-1404
1 45686U 20035AF  25291.81931948  .00001959  00000-0  15038-3 0  9995
2 45686  53.0555 333.5035 0001478  99.0600 261.0556 15.06407343297499
Epoch: 2025-10-18T19:39Z
TLE epoch observation values (Epoch: 2025-10-18T19:39:49.203Z)
Latitude
-0.00002°
Longitude
11.0036°
Altitude
548.228 km
Speed
7.589 km/s
True Right ascension
22h 14m 00s
True Declination
0° 00' 00"
Sunlit
Object was in full shadow at epoch
Visualization orbit readout
Latitude
Unknown
Longitude
Unknown
Altitude
Unknown
Speed
Unknown
Apparent Right ascension
Unknown
Apparent Declination
Unknown
Sunlit
N/A
Visualization observer readout
Local Sidereal Time
00:40:46
Azimuth
Unknown
Elevation
Unknown
Doppler factor
Unknown
Orbital elements
Apogee altitude
548.483 km
Perigee altitude
546.436 km
Semi-major axis
6,925.597 km
Eccentricity
0.00015
Inclination
53.0555°
RAAN
333.5035°
Arg. of periapsis
99.06°
True anomaly
261.03887°
Mean anomaly
261.0556°
Eccentric anomaly
261.04723°
Mean motion
3.7658 °/min
Orbital period
95.6 mins
BSTAR
0.00015038
Loading maneuver chart data...
Computing Atmospheric mass density...

Documentation

Showing up to 5 results
|